Location: 22
(39.7117°N, 89.5929°W)
Time: 02:57:18
(UTC-05:00)

A-11 Canister half - Pass Details

Date: 17 June 2023
Orbit: 1524 x 1684 km, 47.3° (Epoch: 30 September)

Event Time Altitude Azimuth Distance (km) Brightness Sun altitude
Rises 21:06:50 0° 279° (W) 4,685 12.8 -6.8°
Reaches altitude 10° 21:10:00 10° 284° (WNW) 3,695 12.2 -7.3°
Maximum altitude 21:19:04 54° 1° (N) 1,802 9.7 -8.6°
Drops below altitude 10° 21:28:12 10° 78° (ENE) 3,720 10.7 -10.0°
Sets 21:31:24 0° 83° (E) 4,719 11.2 -10.4°
